TimePST,TemperatureF,Dew PointF,Humidity,Sea Level PressureIn,VisibilityMPH,Wind Direction,Wind SpeedMPH,Gust SpeedMPH,PrecipitationIn,Events,Conditions,WindDirDegrees,DateUTC
12:53 AM,35.1,32.0,89,29.95,10.0,South,10.4,-,N/A,,Overcast,170,2013-02-06 08:53:00
1:53 AM,35.1,32.0,89,29.96,10.0,South,5.8,-,N/A,,Overcast,180,2013-02-06 09:53:00
2:33 AM,35.6,32.0,87,29.91,10.0,SSE,6.9,-,N/A,,Overcast,160,2013-02-06 10:33:00
2:53 AM,35.1,32.0,89,29.96,10.0,SSE,3.5,-,N/A,,Overcast,160,2013-02-06 10:53:00
3:53 AM,35.1,32.0,89,29.98,10.0,SE,4.6,-,N/A,,Overcast,130,2013-02-06 11:53:00
4:53 AM,35.1,32.0,89,29.99,10.0,SE,8.1,-,N/A,,Overcast,140,2013-02-06 12:53:00
5:53 AM,35.1,32.0,89,30.00,10.0,SSE,6.9,-,N/A,,Overcast,150,2013-02-06 13:53:00
6:53 AM,34.0,30.9,89,30.02,10.0,SSW,12.7,-,N/A,,Mostly Cloudy,200,2013-02-06 14:53:00
7:53 AM,34.0,32.0,92,30.04,10.0,South,3.5,-,N/A,,Overcast,190,2013-02-06 15:53:00
8:53 AM,34.0,32.0,92,30.06,10.0,SSE,3.5,-,N/A,,Overcast,150,2013-02-06 16:53:00
9:53 AM,34.0,32.0,92,30.08,10.0,South,9.2,-,N/A,,Overcast,190,2013-02-06 17:53:00
10:53 AM,35.1,32.0,89,30.09,10.0,SW,3.5,-,N/A,,Overcast,230,2013-02-06 18:53:00
11:33 AM,35.6,32.0,87,30.04,10.0,WSW,3.5,-,N/A,,Overcast,240,2013-02-06 19:33:00
11:46 AM,35.6,32.0,87,30.04,10.0,Calm,Calm,-,N/A,,Overcast,0,2013-02-06 19:46:00
11:53 AM,37.0,32.0,82,30.09,10.0,Calm,Calm,-,N/A,,Overcast,0,2013-02-06 19:53:00
12:53 PM,37.9,32.0,79,30.09,10.0,Calm,Calm,-,N/A,,Overcast,0,2013-02-06 20:53:00
1:53 PM,37.9,30.9,76,30.09,10.0,WSW,9.2,-,N/A,,Mostly Cloudy,240,2013-02-06 21:53:00
2:27 PM,37.4,30.2,75,30.04,10.0,Calm,Calm,-,N/A,,Mostly Cloudy,0,2013-02-06 22:27:00
2:53 PM,39.0,32.0,76,30.09,10.0,Calm,Calm,-,N/A,,Partly Cloudy,0,2013-02-06 22:53:00
3:53 PM,37.0,30.9,79,30.09,10.0,Calm,Calm,-,N/A,,Clear,0,2013-02-06 23:53:00
4:53 PM,34.0,30.0,85,30.09,10.0,Calm,Calm,-,N/A,,Clear,0,2013-02-07 00:53:00
5:53 PM,33.1,30.0,89,30.08,10.0,NE,4.6,-,N/A,,Partly Cloudy,50,2013-02-07 01:53:00
6:53 PM,33.1,30.0,89,30.06,10.0,NE,5.8,-,N/A,,Clear,50,2013-02-07 02:53:00
7:53 PM,32.0,28.9,88,30.06,10.0,NNE,3.5,-,N/A,,Clear,30,2013-02-07 03:53:00
8:53 PM,30.9,28.9,92,30.06,10.0,NE,3.5,-,N/A,,Mostly Cloudy,40,2013-02-07 04:53:00
10:53 PM,32.0,30.0,92,30.04,10.0,Calm,Calm,-,N/A,,Overcast,0,2013-02-07 06:53:00
11:53 PM,33.1,30.9,92,30.02,10.0,North,4.6,-,N/A,,Overcast,10,2013-02-07 07:53:00